Location:  
MeteoStar

Sort by weather type Sort by elevation Sort by visibility Sort from west to east north Sort from north to south Alphabetically Sort from strongest wind speed Sort from lowest to highest pressure Sort from highest to lowest dew point temperature Sort coolest temperatures to warmest Sort warm temperatures to coolest
 Metric

Current Observations for United Kingdom sorted from warmest to coolest

Stansted Airport13:20ZMostly Cloudy75 59251022.0SSW 9 75347
Cambridge13:20ZPartly Cloudy75 57251021.1WSW 10 7549
London City Airport13:20ZMostly Cloudy75 59121022.1WSW 11 7516
Gravesend-Broadness13:00ZNot Avail.74 60301022.5WSW 8 749
Northolt13:00ZCloudy74 59201022.9SW 10 74124
London / Heathrow Airport13:00ZNot Avail.74 58301023SW 9 7478
Pershore13:00ZNot Avail.73 62201022.2SW 11 73104
Wattisham13:00ZMostly Cloudy73 57301022.2SW 9 73285
Mildenhall Royal Air Force Base12:59ZCloudy73 6381021.5WSW 8 7332
Luton Airport 13:20ZMostly Cloudy73 59151022.0SW 10 73524
Shoeburyness13:00ZNot Avail.72 61251023S 9 726
Wittering13:00ZNot Avail.72 60251020.7SW 10 72275
Brize Norton13:00ZCloudy72 61251022.5WSW 8 72288
Fairford Royal Air Force Base13:01ZMostly Cloudy72 61301022.5WSW 12 72285
Exeter Airport13:20ZMostly Cloudy72 61251023.1NW 8 7298
Cranfield13:20ZMostly Cloudy72 61251022.0SW 11 72364
Southend-On-Sea 13:20ZPartly Cloudy72 57301022.1SSW 12 7249
London / Gatwick Airport13:20ZMostly Cloudy72 61121023.1SW 7 72203
Bedford13:00ZNot Avail.71 60301021.7SW 9 71278
Marham13:00ZCloudy71 59151021.7SW 8 7175
Holbeach13:00ZNot Avail.71 60201021.2SSW 12 719
Coningsby Royal Air Force Base13:00ZCloudy71 57251020.7SW 8 7122
Benson13:00ZCloudy71 59251022.7WSW 9 71206
Bournemouth Airport13:00ZNot Avail.71 60111023.9SW 10 7136
Yeovilton13:00ZCloudy71 62151023.4SSW 10 7175
Chivenor13:00ZNot Avail.71 62251023.5WSW 13 7126
Kenley13:00ZNot Avail.70 60301023.2WSW 9 70557
Larkhill13:00ZCloudy70 61251023.2WSW 5 70433
Church Lawford13:00ZNot Avail.70 59251021.4SW 7 70351
Cranwell13:00ZCloudy70 59251020.7SW 13 70219
Middle Wallop13:00ZCloudy70 59251023.5SW 7 70298
Odiham13:00ZCloudy70 59251023.4WSW 9 70403
Manston13:00ZNot Avail.70 6281023.4SW 10 70180
Humberside13:20ZMostly Cloudy70 55301020.1SW 12 70101
Farnborough13:00ZNot Avail.70 60201023.2SW 9 70213
Biggin Hill 13:20ZPartly Cloudy70 61121023.9SW 9 70600
Bristol / Lulsgate 13:20ZCloudy70 64151023.0WSW 11 70620
Staverton Private 13:20ZMostly Cloudy70 61201022.1SW 10 7095
Dunkeswell Aerodrome13:00ZNot Avail.69 61161023.4W 6 69826
High Wicombe Hqstc13:00ZNot Avail.69 60201022.7W 5 69669
Shobdon13:00ZNot Avail.69 60161021.5WSW 14 69324
Bridlington Mrsc13:00ZNot Avail.69 44301020WSW 10 6949
Wainfleet13:00ZNot Avail.69 58151021S 10 699
Hawarden13:00ZNot Avail.69 59251020WSW 11 6932
Boscombe Down13:00ZCloudy69 60251023.4SW 6 69406
Lyneham13:00ZNot Avail.69 60251022.7W 8 69475
Herstmonceux13:00ZNot Avail.68 60161024.1WSW 7 68170
Thorney Island13:00ZNot Avail.68 62201024.1SSW 13 6813
Little Rissington13:00ZNot Avail.68 61301022WSW 15 68705
Nottingham Weather Centre13:00ZNot Avail.68 57401020.7SW 8 68383
Waddington13:00ZCloudy68 56251020.7SW 9 68223
Linton-On-Ouse13:00ZCloudy68 44201019.5SW 10 6852
Norwich Weather Centre13:20ZMostly Cloudy68 61251022.1S 6 6845
East Midlands13:20ZMostly Cloudy68 59151021.1SSW 11 68308
Southampton / Weather Centre13:20ZMostly Cloudy68 59111024.1SSW 8 6829
Liverpool Airport 13:20ZMostly Cloudy68 59151020.1SSW 6 6885
Birmingham / Airport13:20ZMostly Cloudy68 61201021.1SW 10 68324
Aberporth13:00ZNot Avail.67 60201021.2SW 13 67436
Shawbury13:00ZCloudy67 59251020.5SW 14 67249
Shoreham Airport13:00ZNot Avail.67 61121024.4SW 14 676
Guernsey Airport13:00ZFog Nearby67 6041026WSW 10 67334
Cardinham13:00ZNot Avail.66 61201024WSW 8 66656
Camborne13:00ZCloudy66 60201024.4SSW 10 Gusting to 20 66285
Trawscoed13:00ZNot Avail.66 61251021.4W 3 66206
Lydd Airport 13:20ZPartly Cloudy66 61301024.1SW 16 669
Cardiff-Wales Airport13:20ZCloudy66 63151023.1W 13 Gusting to 23 66219
Manchester Airport13:20ZCloudy66 57201020.1SW 8 66226
Saint Helena Island13:00ZCloudy65 642.51021SE 15 651427
Leeming13:00ZCloudy65 44201019.5SW 9 65131
Saint Catherines Point13:00ZNot Avail.64 60161024.5W 9 6452
Donna Nook13:00ZNot Avail.64 56151020.7E 10 6426
Rhyl13:00ZNot Avail.64 58301020SW 7 Gusting to 18 64252
Tees-Side13:20ZClear64 43151019.1SW 11 64121
Leeds And Bradford13:20ZMostly Cloudy64 52181020.1WSW 8 64682
Jersey Airport13:00ZNot Avail.64 60121026.3WSW 6 64275
Scilly; Saint MaryS13:00ZNot Avail.64 61191024.8SSW 10 64101
Liscombe13:00ZNot Avail.63 61121023.7WSW 6 631141
Weybourne13:00ZNot Avail.63 5381021.9E 10 6368
Loftus Samos13:00ZNot Avail.63 47301019.5N 63190
Dundee / Riverside13:20ZClear63 50251017.1WSW 17 6313
Inverness / Dalcross13:20ZClear63 43251015.1WSW 16 6329
Newcastle 13:20ZNot Avail.63 41151018.2W 8 63265
Culdrose13:00ZHaze63 6041024.9SW 10 63255
Langdon Bay13:00ZNot Avail.62 58301024.1SW 7 62383
Crosby13:00ZNot Avail.62 52201020.0WNW 3 6226
Fylingdales13:00ZNot Avail.62 4130SW 14 62859
Aberdeen / Dyce13:00ZNot Avail.62 38251015.5WNW 14 62213
Plymouth13:00ZMist62 6171025SSW 7 62164
Bingley13:00ZNot Avail.61 51201020SW 7 61859
Charterhall13:00ZNot Avail.61 46251017.7SW 12 61367
Glasgow Airport13:20ZClear61 46251018.1SW 15 6126
Alderney / Channel Island13:20ZFog61 N/A0.371025.1SW 10 232
Mumbles13:00ZNot Avail.60 600.371023.7SW 19 Gusting to 25 60114
Milford Haven13:00ZNot Avail.60 590.371022.5SW 8 60144
Leuchars13:00ZNot Avail.60 44191017.0WSW 15 6039
Valley13:00ZCloudy60 5691019.9S 16 603
Pembrey Sands13:00ZNot Avail.60 600.621023.0SSW 15 609
Sennybridge13:00ZLight Drizzle59 590.51022.5SW 13 591007
Lossiemouth13:00ZMostly Cloudy59 40251015.4WNW 14 Gusting to 27 5942
Boulmer13:00ZClear59 44171018.9SW 9 5975
Edinburgh Airport13:20ZMostly Cloudy59 43251018.1WSW 13 59134
Walney Island13:00ZNot Avail.59 51181020.2S 7 5949
Blackpool Airport13:00ZNot Avail.59 4930W 4 5932
Belfast / Harbour13:20ZCloudy59 46201018.1SSE 8 5916
Lake Vyrnwy13:00ZNot Avail.58 N/A41020.7SW 17 Gusting to 28 1181
Carlisle13:00ZNot Avail.58 45251019.7N 5891
Keswick13:00ZNot Avail.58 43201019.7WSW 5 58265
Strathallan13:00ZNot Avail.58 45181017.4SW 13 58114
Kirkwall Airport13:00ZNot Avail.58 45111013.0W 24 Gusting to 36 5868
Aberdaron13:00ZNot Avail.57 5671021.4SW 19 Gusting to 27 57311
Warcop Range13:00ZNot Avail.57 44201019.4SW 8 57744
Shap13:00ZNot Avail.57 46201019.5SW 10 57816
Inverbervie13:00ZNot Avail.57 42251016.2WSW 16 Gusting to 25 57439
Aviemore13:00ZNot Avail.57 42141015.9SW 6 Gusting to 16 57721
Loch Glascanoch13:00ZClear57 40171015.0W 15 Gusting to 25 57869
Tiree13:00ZNot Avail.57 47101017.4SW 11 5739
Prestwick Airport13:20ZPartly Cloudy57 45251019.1WSW 8 5765
West Freugh13:00ZNot Avail.57 43191019.2S 10 5736
Eglinton / Londonderr13:20ZLight Rain57 48201017.1SSW 5 5729
Belfast / Aldergrove Airport13:00ZNot Avail.57 44201018.2SSE 5 57265
Portglenone13:00ZNot Avail.56 47101018S 6 56209
Drumalbin13:00ZNot Avail.56 44251018.4W 13 56803
Altnaharra13:00ZNot Avail.56 44201014.4WSW 14 Gusting to 26 56265
Wick13:00ZNot Avail.56 41201014WSW 17 Gusting to 27 56127
Ballypatrick Forest13:00ZNot Avail.55 43201018.5W 7 55511
Castlederg13:00ZLight Rain55 4881017.4SSE 6 55167
Redesdale13:00ZNot Avail.55 42201019.0WSW 9 55692
Spadeadam13:00ZNot Avail.55 42181019.0W 14 55935
Saint Bees Head13:00ZNot Avail.55 48201020.0S 10 55406
Eskdalemuir13:00ZCloudy55 43201019.2SSW 13 55793
Dundrennan13:00ZNot Avail.55 46101019.5SSW 8 55374
Prestwick Rnas13:00ZNot Avail.55 45101019.0WSW 11 5585
South Uist Range13:00ZFog55 46111016WSW 14 5532
Machrihanish13:00ZNot Avail.55 46151018.2W 7 5542
Scatsa / Shetland Island13:20ZClear55 39251008.1W 28 Gusting to 39 5572
Benbecula13:20ZClear55 45251016.1WSW 14 5519
Isle Of Man / Ronaldsway Airport13:00ZCloudy55 45151020S 6 5555
Aultbea13:00ZNot Avail.54 44141016WSW 13 5036
Lerwick13:00ZPartly Cloudy54 4371009.0W 29 Gusting to 40 48269
Sumburgh Cape 13:20ZClear54 46111011.1W 21 4916
Glenanne13:00ZNot Avail.53 47121017.7S 9 50528
Lough Fea13:00ZLight Showers53 4651017.9SSE 7 51738
Tulloch Bridge13:00ZClear53 41301017.7SSW 8 50777
Sule Skerry13:00ZNot Avail.53 4561012.9W 20 Gusting to 31 4852
Fair Isle13:00ZClear53 4561011.5WSW 22 Gusting to 32 47187
Baltasound13:00ZHaze52 4251007.2W 29 Gusting to 40 4549
Stornoway13:00ZClear51 4581014.7W 20 Gusting to 28 4529
Glen Ogle13:00ZNot Avail.47 3518W 13 Gusting to 27 411850
Cairnwell13:00ZNot Avail.44 3114WSW 23 Gusting to 36 353061
Cairngorm13:00ZNot Avail.39 3914W 24 Gusting to 34 284084


Atlantic
Tropical Watch